Data supplied by UK-AIR on 12/7/2023
All Data GMT hour ending 
Status: R =Ratified P=Provisional,P*=As supplied
,,London Honor Oak Park,,,,,,,,,,,,,,,,,,,,,,,
Date,time,"PM<sub>10</sub> particulate matter (Hourly measured)",status,unit,"PM<sub>2.5</sub> particulate matter (Hourly measured)",status,unit
 
01-01-2022,01:00,18.500,R,ugm-3 (FIDAS),15.189,R,ugm-3 (Ref.eq)
01-01-2022,02:00,16.400,R,ugm-3 (FIDAS),12.642,R,ugm-3 (Ref.eq)
01-01-2022,03:00,13.900,R,ugm-3 (FIDAS),11.038,R,ugm-3 (Ref.eq)
01-01-2022,04:00,12.600,R,ugm-3 (FIDAS),9.717,R,ugm-3 (Ref.eq)
01-01-2022,05:00,10.700,R,ugm-3 (FIDAS),7.453,R,ugm-3 (Ref.eq)
01-01-2022,06:00,9.500,R,ugm-3 (FIDAS),6.509,R,ugm-3 (Ref.eq)
01-01-2022,07:00,9.900,R,ugm-3 (FIDAS),7.076,R,ugm-3 (Ref.eq)
01-01-2022,08:00,8.900,R,ugm-3 (FIDAS),6.132,R,ugm-3 (Ref.eq)
01-01-2022,09:00,9.200,R,ugm-3 (FIDAS),5.943,R,ugm-3 (Ref.eq)
01-01-2022,10:00,10.100,R,ugm-3 (FIDAS),5.943,R,ugm-3 (Ref.eq)
01-01-2022,11:00,10.800,R,ugm-3 (FIDAS),6.415,R,ugm-3 (Ref.eq)
01-01-2022,12:00,14.900,R,ugm-3 (FIDAS),7.547,R,ugm-3 (Ref.eq)
01-01-2022,13:00,17.900,R,ugm-3 (FIDAS),8.868,R,ugm-3 (Ref.eq)
01-01-2022,14:00,18.500,R,ugm-3 (FIDAS),9.528,R,ugm-3 (Ref.eq)
01-01-2022,15:00,19.000,R,ugm-3 (FIDAS),10.000,R,ugm-3 (Ref.eq)
01-01-2022,16:00,19.400,R,ugm-3 (FIDAS),10.566,R,ugm-3 (Ref.eq)
01-01-2022,17:00,21.400,R,ugm-3 (FIDAS),11.604,R,ugm-3 (Ref.eq)
01-01-2022,18:00,17.000,R,ugm-3 (FIDAS),10.283,R,ugm-3 (Ref.eq)
01-01-2022,19:00,19.900,R,ugm-3 (FIDAS),11.698,R,ugm-3 (Ref.eq)
01-01-2022,20:00,25.300,R,ugm-3 (FIDAS),13.679,R,ugm-3 (Ref.eq)
01-01-2022,21:00,23.100,R,ugm-3 (FIDAS),12.642,R,ugm-3 (Ref.eq)
01-01-2022,22:00,22.400,R,ugm-3 (FIDAS),12.642,R,ugm-3 (Ref.eq)
01-01-2022,23:00,21.400,R,ugm-3 (FIDAS),12.359,R,ugm-3 (Ref.eq)
01-01-2022,24:00,14.300,R,ugm-3 (FIDAS),8.868,R,ugm-3 (Ref.eq)
02-01-2022,01:00,4.700,R,ugm-3 (FIDAS),3.302,R,ugm-3 (Ref.eq)
02-01-2022,02:00,5.400,R,ugm-3 (FIDAS),3.774,R,ugm-3 (Ref.eq)
02-01-2022,03:00,6.500,R,ugm-3 (FIDAS),4.434,R,ugm-3 (Ref.eq)
02-01-2022,04:00,4.800,R,ugm-3 (FIDAS),3.302,R,ugm-3 (Ref.eq)
02-01-2022,05:00,3.000,R,ugm-3 (FIDAS),1.887,R,ugm-3 (Ref.eq)
02-01-2022,06:00,5.100,R,ugm-3 (FIDAS),3.208,R,ugm-3 (Ref.eq)
02-01-2022,07:00,2.900,R,ugm-3 (FIDAS),1.698,R,ugm-3 (Ref.eq)
02-01-2022,08:00,3.200,R,ugm-3 (FIDAS),1.604,R,ugm-3 (Ref.eq)
02-01-2022,09:00,3.800,R,ugm-3 (FIDAS),1.981,R,ugm-3 (Ref.eq)
02-01-2022,10:00,3.900,R,ugm-3 (FIDAS),1.981,R,ugm-3 (Ref.eq)
02-01-2022,11:00,3.600,R,ugm-3 (FIDAS),1.981,R,ugm-3 (Ref.eq)
02-01-2022,12:00,3.600,R,ugm-3 (FIDAS),1.981,R,ugm-3 (Ref.eq)
02-01-2022,13:00,4.000,R,ugm-3 (FIDAS),2.075,R,ugm-3 (Ref.eq)
02-01-2022,14:00,5.800,R,ugm-3 (FIDAS),3.113,R,ugm-3 (Ref.eq)
02-01-2022,15:00,7.000,R,ugm-3 (FIDAS),3.962,R,ugm-3 (Ref.eq)
02-01-2022,16:00,4.000,R,ugm-3 (FIDAS),2.642,R,ugm-3 (Ref.eq)
02-01-2022,17:00,4.800,R,ugm-3 (FIDAS),2.547,R,ugm-3 (Ref.eq)
02-01-2022,18:00,6.300,R,ugm-3 (FIDAS),3.302,R,ugm-3 (Ref.eq)
02-01-2022,19:00,6.900,R,ugm-3 (FIDAS),3.679,R,ugm-3 (Ref.eq)
02-01-2022,20:00,6.800,R,ugm-3 (FIDAS),3.868,R,ugm-3 (Ref.eq)
02-01-2022,21:00,7.200,R,ugm-3 (FIDAS),3.774,R,ugm-3 (Ref.eq)
02-01-2022,22:00,9.100,R,ugm-3 (FIDAS),4.717,R,ugm-3 (Ref.eq)
02-01-2022,23:00,13.900,R,ugm-3 (FIDAS),6.981,R,ugm-3 (Ref.eq)
02-01-2022,24:00,16.100,R,ugm-3 (FIDAS),8.396,R,ugm-3 (Ref.eq)
03-01-2022,01:00,16.800,R,ugm-3 (FIDAS),8.491,R,ugm-3 (Ref.eq)
03-01-2022,02:00,16.400,R,ugm-3 (FIDAS),8.585,R,ugm-3 (Ref.eq)
03-01-2022,03:00,15.400,R,ugm-3 (FIDAS),8.302,R,ugm-3 (Ref.eq)
03-01-2022,04:00,14.900,R,ugm-3 (FIDAS),8.019,R,ugm-3 (Ref.eq)
03-01-2022,05:00,14.100,R,ugm-3 (FIDAS),7.547,R,ugm-3 (Ref.eq)
03-01-2022,06:00,15.600,R,ugm-3 (FIDAS),7.453,R,ugm-3 (Ref.eq)
03-01-2022,07:00,16.400,R,ugm-3 (FIDAS),8.302,R,ugm-3 (Ref.eq)
03-01-2022,08:00,18.600,R,ugm-3 (FIDAS),9.623,R,ugm-3 (Ref.eq)
03-01-2022,09:00,18.500,R,ugm-3 (FIDAS),9.717,R,ugm-3 (Ref.eq)
03-01-2022,10:00,11.700,R,ugm-3 (FIDAS),6.132,R,ugm-3 (Ref.eq)
03-01-2022,11:00,7.500,R,ugm-3 (FIDAS),3.679,R,ugm-3 (Ref.eq)
03-01-2022,12:00,8.500,R,ugm-3 (FIDAS),4.057,R,ugm-3 (Ref.eq)
03-01-2022,13:00,11.100,R,ugm-3 (FIDAS),5.000,R,ugm-3 (Ref.eq)
03-01-2022,14:00,11.300,R,ugm-3 (FIDAS),5.189,R,ugm-3 (Ref.eq)
03-01-2022,15:00,10.200,R,ugm-3 (FIDAS),4.906,R,ugm-3 (Ref.eq)
03-01-2022,16:00,11.100,R,ugm-3 (FIDAS),5.660,R,ugm-3 (Ref.eq)
03-01-2022,17:00,14.600,R,ugm-3 (FIDAS),7.547,R,ugm-3 (Ref.eq)
03-01-2022,18:00,13.800,R,ugm-3 (FIDAS),8.019,R,ugm-3 (Ref.eq)
03-01-2022,19:00,14.700,R,ugm-3 (FIDAS),8.585,R,ugm-3 (Ref.eq)
03-01-2022,20:00,14.300,R,ugm-3 (FIDAS),8.208,R,ugm-3 (Ref.eq)
03-01-2022,21:00,13.900,R,ugm-3 (FIDAS),8.396,R,ugm-3 (Ref.eq)
03-01-2022,22:00,13.900,R,ugm-3 (FIDAS),7.925,R,ugm-3 (Ref.eq)
03-01-2022,23:00,12.600,R,ugm-3 (FIDAS),6.887,R,ugm-3 (Ref.eq)
03-01-2022,24:00,11.800,R,ugm-3 (FIDAS),6.509,R,ugm-3 (Ref.eq)
04-01-2022,01:00,11.800,R,ugm-3 (FIDAS),6.321,R,ugm-3 (Ref.eq)
04-01-2022,02:00,11.900,R,ugm-3 (FIDAS),6.226,R,ugm-3 (Ref.eq)
04-01-2022,03:00,11.800,R,ugm-3 (FIDAS),6.226,R,ugm-3 (Ref.eq)
04-01-2022,04:00,11.500,R,ugm-3 (FIDAS),6.321,R,ugm-3 (Ref.eq)
04-01-2022,05:00,11.300,R,ugm-3 (FIDAS),5.943,R,ugm-3 (Ref.eq)
04-01-2022,06:00,11.800,R,ugm-3 (FIDAS),6.321,R,ugm-3 (Ref.eq)
04-01-2022,07:00,11.600,R,ugm-3 (FIDAS),6.038,R,ugm-3 (Ref.eq)
04-01-2022,08:00,12.200,R,ugm-3 (FIDAS),6.415,R,ugm-3 (Ref.eq)
04-01-2022,09:00,12.900,R,ugm-3 (FIDAS),6.887,R,ugm-3 (Ref.eq)
04-01-2022,10:00,8.600,R,ugm-3 (FIDAS),5.283,R,ugm-3 (Ref.eq)
04-01-2022,11:00,2.000,R,ugm-3 (FIDAS),1.226,R,ugm-3 (Ref.eq)
04-01-2022,12:00,1.900,R,ugm-3 (FIDAS),1.226,R,ugm-3 (Ref.eq)
04-01-2022,13:00,3.900,R,ugm-3 (FIDAS),2.642,R,ugm-3 (Ref.eq)
04-01-2022,14:00,4.400,R,ugm-3 (FIDAS),2.642,R,ugm-3 (Ref.eq)
04-01-2022,15:00,5.100,R,ugm-3 (FIDAS),2.830,R,ugm-3 (Ref.eq)
04-01-2022,16:00,6.300,R,ugm-3 (FIDAS),3.208,R,ugm-3 (Ref.eq)
04-01-2022,17:00,6.400,R,ugm-3 (FIDAS),3.585,R,ugm-3 (Ref.eq)
04-01-2022,18:00,12.100,R,ugm-3 (FIDAS),7.642,R,ugm-3 (Ref.eq)
04-01-2022,19:00,11.900,R,ugm-3 (FIDAS),6.509,R,ugm-3 (Ref.eq)
04-01-2022,20:00,13.600,R,ugm-3 (FIDAS),7.830,R,ugm-3 (Ref.eq)
04-01-2022,21:00,15.100,R,ugm-3 (FIDAS),8.585,R,ugm-3 (Ref.eq)
04-01-2022,22:00,13.000,R,ugm-3 (FIDAS),7.359,R,ugm-3 (Ref.eq)
04-01-2022,23:00,9.100,R,ugm-3 (FIDAS),5.566,R,ugm-3 (Ref.eq)
04-01-2022,24:00,6.700,R,ugm-3 (FIDAS),4.057,R,ugm-3 (Ref.eq)
05-01-2022,01:00,7.500,R,ugm-3 (FIDAS),4.151,R,ugm-3 (Ref.eq)
05-01-2022,02:00,7.700,R,ugm-3 (FIDAS),4.245,R,ugm-3 (Ref.eq)
05-01-2022,03:00,7.400,R,ugm-3 (FIDAS),4.057,R,ugm-3 (Ref.eq)
05-01-2022,04:00,6.400,R,ugm-3 (FIDAS),3.679,R,ugm-3 (Ref.eq)
05-01-2022,05:00,7.200,R,ugm-3 (FIDAS),4.057,R,ugm-3 (Ref.eq)
05-01-2022,06:00,8.500,R,ugm-3 (FIDAS),4.528,R,ugm-3 (Ref.eq)
05-01-2022,07:00,8.200,R,ugm-3 (FIDAS),4.623,R,ugm-3 (Ref.eq)
05-01-2022,08:00,8.800,R,ugm-3 (FIDAS),4.811,R,ugm-3 (Ref.eq)
05-01-2022,09:00,10.200,R,ugm-3 (FIDAS),5.189,R,ugm-3 (Ref.eq)
05-01-2022,10:00,10.600,R,ugm-3 (FIDAS),5.566,R,ugm-3 (Ref.eq)
05-01-2022,11:00,11.100,R,ugm-3 (FIDAS),5.660,R,ugm-3 (Ref.eq)
05-01-2022,12:00,13.600,R,ugm-3 (FIDAS),6.226,R,ugm-3 (Ref.eq)
05-01-2022,13:00,15.000,R,ugm-3 (FIDAS),6.132,R,ugm-3 (Ref.eq)
05-01-2022,14:00,13.000,R,ugm-3 (FIDAS),5.472,R,ugm-3 (Ref.eq)
05-01-2022,15:00,10.300,R,ugm-3 (FIDAS),4.906,R,ugm-3 (Ref.eq)
05-01-2022,16:00,9.600,R,ugm-3 (FIDAS),4.811,R,ugm-3 (Ref.eq)
05-01-2022,17:00,10.500,R,ugm-3 (FIDAS),5.472,R,ugm-3 (Ref.eq)
05-01-2022,18:00,12.100,R,ugm-3 (FIDAS),6.887,R,ugm-3 (Ref.eq)
05-01-2022,19:00,15.100,R,ugm-3 (FIDAS),9.245,R,ugm-3 (Ref.eq)
05-01-2022,20:00,18.000,R,ugm-3 (FIDAS),11.415,R,ugm-3 (Ref.eq)
05-01-2022,21:00,19.600,R,ugm-3 (FIDAS),13.491,R,ugm-3 (Ref.eq)
05-01-2022,22:00,20.500,R,ugm-3 (FIDAS),14.717,R,ugm-3 (Ref.eq)
05-01-2022,23:00,19.400,R,ugm-3 (FIDAS),14.528,R,ugm-3 (Ref.eq)
05-01-2022,24:00,19.500,R,ugm-3 (FIDAS),14.245,R,ugm-3 (Ref.eq)
06-01-2022,01:00,18.500,R,ugm-3 (FIDAS),13.962,R,ugm-3 (Ref.eq)
06-01-2022,02:00,19.400,R,ugm-3 (FIDAS),12.736,R,ugm-3 (Ref.eq)
06-01-2022,03:00,17.200,R,ugm-3 (FIDAS),11.321,R,ugm-3 (Ref.eq)
06-01-2022,04:00,14.600,R,ugm-3 (FIDAS),10.943,R,ugm-3 (Ref.eq)
06-01-2022,05:00,14.800,R,ugm-3 (FIDAS),11.038,R,ugm-3 (Ref.eq)
06-01-2022,06:00,13.900,R,ugm-3 (FIDAS),10.472,R,ugm-3 (Ref.eq)
06-01-2022,07:00,13.100,R,ugm-3 (FIDAS),10.283,R,ugm-3 (Ref.eq)
06-01-2022,08:00,13.700,R,ugm-3 (FIDAS),11.132,R,ugm-3 (Ref.eq)
06-01-2022,09:00,15.800,R,ugm-3 (FIDAS),12.264,R,ugm-3 (Ref.eq)
06-01-2022,10:00,17.300,R,ugm-3 (FIDAS),11.509,R,ugm-3 (Ref.eq)
06-01-2022,11:00,12.400,R,ugm-3 (FIDAS),7.736,R,ugm-3 (Ref.eq)
06-01-2022,12:00,11.500,R,ugm-3 (FIDAS),6.509,R,ugm-3 (Ref.eq)
06-01-2022,13:00,12.700,R,ugm-3 (FIDAS),7.170,R,ugm-3 (Ref.eq)
06-01-2022,14:00,12.400,R,ugm-3 (FIDAS),8.113,R,ugm-3 (Ref.eq)
06-01-2022,15:00,9.500,R,ugm-3 (FIDAS),5.849,R,ugm-3 (Ref.eq)
06-01-2022,16:00,9.100,R,ugm-3 (FIDAS),5.000,R,ugm-3 (Ref.eq)
06-01-2022,17:00,10.100,R,ugm-3 (FIDAS),5.000,R,ugm-3 (Ref.eq)
06-01-2022,18:00,11.300,R,ugm-3 (FIDAS),5.283,R,ugm-3 (Ref.eq)
06-01-2022,19:00,10.400,R,ugm-3 (FIDAS),5.189,R,ugm-3 (Ref.eq)
06-01-2022,20:00,5.500,R,ugm-3 (FIDAS),3.868,R,ugm-3 (Ref.eq)
06-01-2022,21:00,2.800,R,ugm-3 (FIDAS),2.170,R,ugm-3 (Ref.eq)
06-01-2022,22:00,2.200,R,ugm-3 (FIDAS),1.604,R,ugm-3 (Ref.eq)
06-01-2022,23:00,4.100,R,ugm-3 (FIDAS),2.830,R,ugm-3 (Ref.eq)
06-01-2022,24:00,6.400,R,ugm-3 (FIDAS),4.151,R,ugm-3 (Ref.eq)
07-01-2022,01:00,4.800,R,ugm-3 (FIDAS),2.830,R,ugm-3 (Ref.eq)
07-01-2022,02:00,4.300,R,ugm-3 (FIDAS),2.359,R,ugm-3 (Ref.eq)
07-01-2022,03:00,7.800,R,ugm-3 (FIDAS),3.585,R,ugm-3 (Ref.eq)
07-01-2022,04:00,9.600,R,ugm-3 (FIDAS),4.623,R,ugm-3 (Ref.eq)
07-01-2022,05:00,8.600,R,ugm-3 (FIDAS),4.434,R,ugm-3 (Ref.eq)
07-01-2022,06:00,5.900,R,ugm-3 (FIDAS),3.208,R,ugm-3 (Ref.eq)
07-01-2022,07:00,4.600,R,ugm-3 (FIDAS),2.359,R,ugm-3 (Ref.eq)
07-01-2022,08:00,4.800,R,ugm-3 (FIDAS),2.359,R,ugm-3 (Ref.eq)
07-01-2022,09:00,4.400,R,ugm-3 (FIDAS),2.264,R,ugm-3 (Ref.eq)
07-01-2022,10:00,7.300,R,ugm-3 (FIDAS),3.302,R,ugm-3 (Ref.eq)
07-01-2022,11:00,4.800,R,ugm-3 (FIDAS),2.547,R,ugm-3 (Ref.eq)
07-01-2022,12:00,6.300,R,ugm-3 (FIDAS),3.019,R,ugm-3 (Ref.eq)
07-01-2022,13:00,9.000,R,ugm-3 (FIDAS),3.774,R,ugm-3 (Ref.eq)
07-01-2022,14:00,9.300,R,ugm-3 (FIDAS),4.151,R,ugm-3 (Ref.eq)
07-01-2022,15:00,8.800,R,ugm-3 (FIDAS),4.245,R,ugm-3 (Ref.eq)
07-01-2022,16:00,9.800,R,ugm-3 (FIDAS),4.623,R,ugm-3 (Ref.eq)
07-01-2022,17:00,6.200,R,ugm-3 (FIDAS),3.396,R,ugm-3 (Ref.eq)
07-01-2022,18:00,2.900,R,ugm-3 (FIDAS),2.170,R,ugm-3 (Ref.eq)
07-01-2022,19:00,4.300,R,ugm-3 (FIDAS),3.208,R,ugm-3 (Ref.eq)
07-01-2022,20:00,6.700,R,ugm-3 (FIDAS),5.472,R,ugm-3 (Ref.eq)
07-01-2022,21:00,8.100,R,ugm-3 (FIDAS),6.887,R,ugm-3 (Ref.eq)
07-01-2022,22:00,9.300,R,ugm-3 (FIDAS),7.925,R,ugm-3 (Ref.eq)
07-01-2022,23:00,9.400,R,ugm-3 (FIDAS),8.208,R,ugm-3 (Ref.eq)
07-01-2022,24:00,8.100,R,ugm-3 (FIDAS),7.359,R,ugm-3 (Ref.eq)
08-01-2022,01:00,9.300,R,ugm-3 (FIDAS),8.113,R,ugm-3 (Ref.eq)
08-01-2022,02:00,8.300,R,ugm-3 (FIDAS),6.604,R,ugm-3 (Ref.eq)
08-01-2022,03:00,7.300,R,ugm-3 (FIDAS),4.811,R,ugm-3 (Ref.eq)
08-01-2022,04:00,6.600,R,ugm-3 (FIDAS),4.623,R,ugm-3 (Ref.eq)
08-01-2022,05:00,7.600,R,ugm-3 (FIDAS),4.811,R,ugm-3 (Ref.eq)
08-01-2022,06:00,7.800,R,ugm-3 (FIDAS),4.151,R,ugm-3 (Ref.eq)
08-01-2022,07:00,8.000,R,ugm-3 (FIDAS),4.245,R,ugm-3 (Ref.eq)
08-01-2022,08:00,8.300,R,ugm-3 (FIDAS),5.377,R,ugm-3 (Ref.eq)
08-01-2022,09:00,8.200,R,ugm-3 (FIDAS),5.472,R,ugm-3 (Ref.eq)
08-01-2022,10:00,9.300,R,ugm-3 (FIDAS),6.321,R,ugm-3 (Ref.eq)
08-01-2022,11:00,7.700,R,ugm-3 (FIDAS),5.000,R,ugm-3 (Ref.eq)
08-01-2022,12:00,3.800,R,ugm-3 (FIDAS),2.830,R,ugm-3 (Ref.eq)
08-01-2022,13:00,3.000,R,ugm-3 (FIDAS),1.887,R,ugm-3 (Ref.eq)
08-01-2022,14:00,2.500,R,ugm-3 (FIDAS),1.509,R,ugm-3 (Ref.eq)
08-01-2022,15:00,2.300,R,ugm-3 (FIDAS),1.604,R,ugm-3 (Ref.eq)
08-01-2022,16:00,4.600,R,ugm-3 (FIDAS),2.642,R,ugm-3 (Ref.eq)
08-01-2022,17:00,7.900,R,ugm-3 (FIDAS),5.377,R,ugm-3 (Ref.eq)
08-01-2022,18:00,9.400,R,ugm-3 (FIDAS),6.226,R,ugm-3 (Ref.eq)
08-01-2022,19:00,10.700,R,ugm-3 (FIDAS),7.264,R,ugm-3 (Ref.eq)
08-01-2022,20:00,16.900,R,ugm-3 (FIDAS),10.000,R,ugm-3 (Ref.eq)
08-01-2022,21:00,12.100,R,ugm-3 (FIDAS),7.170,R,ugm-3 (Ref.eq)
08-01-2022,22:00,7.300,R,ugm-3 (FIDAS),4.434,R,ugm-3 (Ref.eq)
08-01-2022,23:00,9.500,R,ugm-3 (FIDAS),5.377,R,ugm-3 (Ref.eq)
08-01-2022,24:00,9.200,R,ugm-3 (FIDAS),5.000,R,ugm-3 (Ref.eq)
09-01-2022,01:00,8.300,R,ugm-3 (FIDAS),4.811,R,ugm-3 (Ref.eq)
09-01-2022,02:00,9.100,R,ugm-3 (FIDAS),4.906,R,ugm-3 (Ref.eq)
09-01-2022,03:00,9.500,R,ugm-3 (FIDAS),4.906,R,ugm-3 (Ref.eq)
09-01-2022,04:00,9.600,R,ugm-3 (FIDAS),5.000,R,ugm-3 (Ref.eq)
09-01-2022,05:00,9.800,R,ugm-3 (FIDAS),5.000,R,ugm-3 (Ref.eq)
09-01-2022,06:00,10.900,R,ugm-3 (FIDAS),5.283,R,ugm-3 (Ref.eq)
09-01-2022,07:00,11.600,R,ugm-3 (FIDAS),5.472,R,ugm-3 (Ref.eq)
09-01-2022,08:00,10.900,R,ugm-3 (FIDAS),5.283,R,ugm-3 (Ref.eq)
09-01-2022,09:00,11.900,R,ugm-3 (FIDAS),5.472,R,ugm-3 (Ref.eq)
09-01-2022,10:00,10.900,R,ugm-3 (FIDAS),5.472,R,ugm-3 (Ref.eq)
09-01-2022,11:00,10.700,R,ugm-3 (FIDAS),5.472,R,ugm-3 (Ref.eq)
09-01-2022,12:00,10.400,R,ugm-3 (FIDAS),5.189,R,ugm-3 (Ref.eq)
09-01-2022,13:00,10.800,R,ugm-3 (FIDAS),5.283,R,ugm-3 (Ref.eq)
09-01-2022,14:00,10.400,R,ugm-3 (FIDAS),5.094,R,ugm-3 (Ref.eq)
09-01-2022,15:00,10.100,R,ugm-3 (FIDAS),5.472,R,ugm-3 (Ref.eq)
09-01-2022,16:00,11.600,R,ugm-3 (FIDAS),6.132,R,ugm-3 (Ref.eq)
09-01-2022,17:00,15.700,R,ugm-3 (FIDAS),10.000,R,ugm-3 (Ref.eq)
09-01-2022,18:00,18.000,R,ugm-3 (FIDAS),12.264,R,ugm-3 (Ref.eq)
09-01-2022,19:00,21.100,R,ugm-3 (FIDAS),14.434,R,ugm-3 (Ref.eq)
09-01-2022,20:00,21.400,R,ugm-3 (FIDAS),15.566,R,ugm-3 (Ref.eq)
09-01-2022,21:00,22.500,R,ugm-3 (FIDAS),16.793,R,ugm-3 (Ref.eq)
09-01-2022,22:00,25.400,R,ugm-3 (FIDAS),20.000,R,ugm-3 (Ref.eq)
09-01-2022,23:00,20.300,R,ugm-3 (FIDAS),13.491,R,ugm-3 (Ref.eq)
09-01-2022,24:00,19.800,R,ugm-3 (FIDAS),15.094,R,ugm-3 (Ref.eq)
10-01-2022,01:00,17.400,R,ugm-3 (FIDAS),13.868,R,ugm-3 (Ref.eq)
10-01-2022,02:00,16.500,R,ugm-3 (FIDAS),12.642,R,ugm-3 (Ref.eq)
10-01-2022,03:00,15.400,R,ugm-3 (FIDAS),12.170,R,ugm-3 (Ref.eq)
10-01-2022,04:00,14.600,R,ugm-3 (FIDAS),11.415,R,ugm-3 (Ref.eq)
10-01-2022,05:00,12.300,R,ugm-3 (FIDAS),8.679,R,ugm-3 (Ref.eq)
10-01-2022,06:00,10.900,R,ugm-3 (FIDAS),8.113,R,ugm-3 (Ref.eq)
10-01-2022,07:00,11.100,R,ugm-3 (FIDAS),8.302,R,ugm-3 (Ref.eq)
10-01-2022,08:00,11.200,R,ugm-3 (FIDAS),8.585,R,ugm-3 (Ref.eq)
10-01-2022,09:00,13.900,R,ugm-3 (FIDAS),9.340,R,ugm-3 (Ref.eq)
10-01-2022,10:00,16.000,R,ugm-3 (FIDAS),10.472,R,ugm-3 (Ref.eq)
10-01-2022,11:00,23.500,R,ugm-3 (FIDAS),13.302,R,ugm-3 (Ref.eq)
10-01-2022,12:00,20.400,R,ugm-3 (FIDAS),12.359,R,ugm-3 (Ref.eq)
10-01-2022,13:00,17.200,R,ugm-3 (FIDAS),10.283,R,ugm-3 (Ref.eq)
10-01-2022,14:00,13.700,R,ugm-3 (FIDAS),9.057,R,ugm-3 (Ref.eq)
10-01-2022,15:00,15.400,R,ugm-3 (FIDAS),10.000,R,ugm-3 (Ref.eq)
10-01-2022,16:00,15.400,R,ugm-3 (FIDAS),10.283,R,ugm-3 (Ref.eq)
10-01-2022,17:00,16.800,R,ugm-3 (FIDAS),11.415,R,ugm-3 (Ref.eq)
10-01-2022,18:00,17.400,R,ugm-3 (FIDAS),12.359,R,ugm-3 (Ref.eq)
10-01-2022,19:00,17.400,R,ugm-3 (FIDAS),12.453,R,ugm-3 (Ref.eq)
10-01-2022,20:00,16.700,R,ugm-3 (FIDAS),12.264,R,ugm-3 (Ref.eq)
10-01-2022,21:00,20.000,R,ugm-3 (FIDAS),15.755,R,ugm-3 (Ref.eq)
10-01-2022,22:00,18.400,R,ugm-3 (FIDAS),15.000,R,ugm-3 (Ref.eq)
10-01-2022,23:00,16.300,R,ugm-3 (FIDAS),12.453,R,ugm-3 (Ref.eq)
10-01-2022,24:00,17.700,R,ugm-3 (FIDAS),14.245,R,ugm-3 (Ref.eq)
11-01-2022,01:00,18.200,R,ugm-3 (FIDAS),14.245,R,ugm-3 (Ref.eq)
11-01-2022,02:00,19.900,R,ugm-3 (FIDAS),15.094,R,ugm-3 (Ref.eq)
11-01-2022,03:00,19.700,R,ugm-3 (FIDAS),14.717,R,ugm-3 (Ref.eq)
11-01-2022,04:00,15.800,R,ugm-3 (FIDAS),11.981,R,ugm-3 (Ref.eq)
11-01-2022,05:00,12.300,R,ugm-3 (FIDAS),9.057,R,ugm-3 (Ref.eq)
11-01-2022,06:00,9.800,R,ugm-3 (FIDAS),7.453,R,ugm-3 (Ref.eq)
11-01-2022,07:00,9.700,R,ugm-3 (FIDAS),7.642,R,ugm-3 (Ref.eq)
11-01-2022,08:00,5.700,R,ugm-3 (FIDAS),4.811,R,ugm-3 (Ref.eq)
11-01-2022,09:00,5.200,R,ugm-3 (FIDAS),3.774,R,ugm-3 (Ref.eq)
11-01-2022,10:00,5.100,R,ugm-3 (FIDAS),3.585,R,ugm-3 (Ref.eq)
11-01-2022,11:00,5.200,R,ugm-3 (FIDAS),3.491,R,ugm-3 (Ref.eq)
11-01-2022,12:00,7.200,R,ugm-3 (FIDAS),5.472,R,ugm-3 (Ref.eq)
11-01-2022,13:00,9.900,R,ugm-3 (FIDAS),6.887,R,ugm-3 (Ref.eq)
11-01-2022,14:00,9.000,R,ugm-3 (FIDAS),7.359,R,ugm-3 (Ref.eq)
11-01-2022,15:00,8.700,R,ugm-3 (FIDAS),6.038,R,ugm-3 (Ref.eq)
11-01-2022,16:00,9.100,R,ugm-3 (FIDAS),6.415,R,ugm-3 (Ref.eq)
11-01-2022,17:00,8.700,R,ugm-3 (FIDAS),6.981,R,ugm-3 (Ref.eq)
11-01-2022,18:00,10.300,R,ugm-3 (FIDAS),7.925,R,ugm-3 (Ref.eq)
11-01-2022,19:00,7.500,R,ugm-3 (FIDAS),6.038,R,ugm-3 (Ref.eq)
11-01-2022,20:00,11.400,R,ugm-3 (FIDAS),9.434,R,ugm-3 (Ref.eq)
11-01-2022,21:00,16.800,R,ugm-3 (FIDAS),13.113,R,ugm-3 (Ref.eq)
11-01-2022,22:00,16.800,R,ugm-3 (FIDAS),11.887,R,ugm-3 (Ref.eq)
11-01-2022,23:00,15.400,R,ugm-3 (FIDAS),10.189,R,ugm-3 (Ref.eq)
11-01-2022,24:00,15.400,R,ugm-3 (FIDAS),10.189,R,ugm-3 (Ref.eq)
12-01-2022,01:00,15.400,R,ugm-3 (FIDAS),9.717,R,ugm-3 (Ref.eq)
12-01-2022,02:00,17.600,R,ugm-3 (FIDAS),12.076,R,ugm-3 (Ref.eq)
12-01-2022,03:00,17.700,R,ugm-3 (FIDAS),13.113,R,ugm-3 (Ref.eq)
12-01-2022,04:00,17.600,R,ugm-3 (FIDAS),13.113,R,ugm-3 (Ref.eq)
12-01-2022,05:00,16.600,R,ugm-3 (FIDAS),12.830,R,ugm-3 (Ref.eq)
12-01-2022,06:00,19.800,R,ugm-3 (FIDAS),15.094,R,ugm-3 (Ref.eq)
12-01-2022,07:00,18.200,R,ugm-3 (FIDAS),14.340,R,ugm-3 (Ref.eq)
12-01-2022,08:00,19.000,R,ugm-3 (FIDAS),14.057,R,ugm-3 (Ref.eq)
12-01-2022,09:00,16.400,R,ugm-3 (FIDAS),12.642,R,ugm-3 (Ref.eq)
12-01-2022,10:00,20.200,R,ugm-3 (FIDAS),14.151,R,ugm-3 (Ref.eq)
12-01-2022,11:00,27.600,R,ugm-3 (FIDAS),17.830,R,ugm-3 (Ref.eq)
12-01-2022,12:00,30.000,R,ugm-3 (FIDAS),18.396,R,ugm-3 (Ref.eq)
12-01-2022,13:00,30.600,R,ugm-3 (FIDAS),19.434,R,ugm-3 (Ref.eq)
12-01-2022,14:00,27.000,R,ugm-3 (FIDAS),17.453,R,ugm-3 (Ref.eq)
12-01-2022,15:00,32.500,R,ugm-3 (FIDAS),19.811,R,ugm-3 (Ref.eq)
12-01-2022,16:00,28.200,R,ugm-3 (FIDAS),17.830,R,ugm-3 (Ref.eq)
12-01-2022,17:00,31.400,R,ugm-3 (FIDAS),19.340,R,ugm-3 (Ref.eq)
12-01-2022,18:00,30.300,R,ugm-3 (FIDAS),20.094,R,ugm-3 (Ref.eq)
12-01-2022,19:00,25.300,R,ugm-3 (FIDAS),18.396,R,ugm-3 (Ref.eq)
12-01-2022,20:00,27.900,R,ugm-3 (FIDAS),20.094,R,ugm-3 (Ref.eq)
12-01-2022,21:00,27.600,R,ugm-3 (FIDAS),22.170,R,ugm-3 (Ref.eq)
12-01-2022,22:00,31.700,R,ugm-3 (FIDAS),25.566,R,ugm-3 (Ref.eq)
12-01-2022,23:00,29.600,R,ugm-3 (FIDAS),24.340,R,ugm-3 (Ref.eq)
12-01-2022,24:00,28.500,R,ugm-3 (FIDAS),23.585,R,ugm-3 (Ref.eq)
13-01-2022,01:00,24.000,R,ugm-3 (FIDAS),20.377,R,ugm-3 (Ref.eq)
13-01-2022,02:00,20.700,R,ugm-3 (FIDAS),17.736,R,ugm-3 (Ref.eq)
13-01-2022,03:00,17.800,R,ugm-3 (FIDAS),15.094,R,ugm-3 (Ref.eq)
13-01-2022,04:00,16.300,R,ugm-3 (FIDAS),13.962,R,ugm-3 (Ref.eq)
13-01-2022,05:00,14.300,R,ugm-3 (FIDAS),12.453,R,ugm-3 (Ref.eq)
13-01-2022,06:00,13.800,R,ugm-3 (FIDAS),11.509,R,ugm-3 (Ref.eq)
13-01-2022,07:00,13.600,R,ugm-3 (FIDAS),11.038,R,ugm-3 (Ref.eq)
13-01-2022,08:00,12.400,R,ugm-3 (FIDAS),10.472,R,ugm-3 (Ref.eq)
13-01-2022,09:00,13.800,R,ugm-3 (FIDAS),11.038,R,ugm-3 (Ref.eq)
13-01-2022,10:00,17.000,R,ugm-3 (FIDAS),12.076,R,ugm-3 (Ref.eq)
13-01-2022,11:00,21.100,R,ugm-3 (FIDAS),15.283,R,ugm-3 (Ref.eq)
13-01-2022,12:00,28.600,R,ugm-3 (FIDAS),18.019,R,ugm-3 (Ref.eq)
13-01-2022,13:00,22.100,R,ugm-3 (FIDAS),13.962,R,ugm-3 (Ref.eq)
13-01-2022,14:00,18.700,R,ugm-3 (FIDAS),11.415,R,ugm-3 (Ref.eq)
13-01-2022,15:00,15.600,R,ugm-3 (FIDAS),10.472,R,ugm-3 (Ref.eq)
13-01-2022,16:00,20.000,R,ugm-3 (FIDAS),13.774,R,ugm-3 (Ref.eq)
13-01-2022,17:00,28.200,R,ugm-3 (FIDAS),15.189,R,ugm-3 (Ref.eq)
13-01-2022,18:00,23.700,R,ugm-3 (FIDAS),14.245,R,ugm-3 (Ref.eq)
13-01-2022,19:00,13.400,R,ugm-3 (FIDAS),10.283,R,ugm-3 (Ref.eq)
13-01-2022,20:00,22.000,R,ugm-3 (FIDAS),16.510,R,ugm-3 (Ref.eq)
13-01-2022,21:00,26.400,R,ugm-3 (FIDAS),20.094,R,ugm-3 (Ref.eq)
13-01-2022,22:00,30.700,R,ugm-3 (FIDAS),23.868,R,ugm-3 (Ref.eq)
13-01-2022,23:00,24.500,R,ugm-3 (FIDAS),20.189,R,ugm-3 (Ref.eq)
13-01-2022,24:00,23.400,R,ugm-3 (FIDAS),19.717,R,ugm-3 (Ref.eq)
14-01-2022,01:00,19.800,R,ugm-3 (FIDAS),17.170,R,ugm-3 (Ref.eq)
14-01-2022,02:00,19.500,R,ugm-3 (FIDAS),16.698,R,ugm-3 (Ref.eq)
14-01-2022,03:00,18.300,R,ugm-3 (FIDAS),15.943,R,ugm-3 (Ref.eq)
14-01-2022,04:00,17.500,R,ugm-3 (FIDAS),15.377,R,ugm-3 (Ref.eq)
14-01-2022,05:00,16.600,R,ugm-3 (FIDAS),14.245,R,ugm-3 (Ref.eq)
14-01-2022,06:00,17.800,R,ugm-3 (FIDAS),14.528,R,ugm-3 (Ref.eq)
14-01-2022,07:00,18.500,R,ugm-3 (FIDAS),15.660,R,ugm-3 (Ref.eq)
14-01-2022,08:00,18.000,R,ugm-3 (FIDAS),15.189,R,ugm-3 (Ref.eq)
14-01-2022,09:00,17.500,R,ugm-3 (FIDAS),14.340,R,ugm-3 (Ref.eq)
14-01-2022,10:00,22.000,R,ugm-3 (FIDAS),16.226,R,ugm-3 (Ref.eq)
14-01-2022,11:00,32.500,R,ugm-3 (FIDAS),22.264,R,ugm-3 (Ref.eq)
14-01-2022,12:00,33.700,R,ugm-3 (FIDAS),25.283,R,ugm-3 (Ref.eq)
14-01-2022,13:00,33.600,R,ugm-3 (FIDAS),25.566,R,ugm-3 (Ref.eq)
14-01-2022,14:00,27.900,R,ugm-3 (FIDAS),21.698,R,ugm-3 (Ref.eq)
14-01-2022,15:00,28.400,R,ugm-3 (FIDAS),21.415,R,ugm-3 (Ref.eq)
14-01-2022,16:00,46.600,R,ugm-3 (FIDAS),30.566,R,ugm-3 (Ref.eq)
14-01-2022,17:00,41.600,R,ugm-3 (FIDAS),29.528,R,ugm-3 (Ref.eq)
14-01-2022,18:00,41.000,R,ugm-3 (FIDAS),29.528,R,ugm-3 (Ref.eq)
14-01-2022,19:00,40.500,R,ugm-3 (FIDAS),31.415,R,ugm-3 (Ref.eq)
14-01-2022,20:00,42.300,R,ugm-3 (FIDAS),34.528,R,ugm-3 (Ref.eq)
14-01-2022,21:00,50.000,R,ugm-3 (FIDAS),42.264,R,ugm-3 (Ref.eq)
14-01-2022,22:00,,,,,,
14-01-2022,23:00,41.500,R,ugm-3 (FIDAS),34.906,R,ugm-3 (Ref.eq)
14-01-2022,24:00,35.500,R,ugm-3 (FIDAS),29.811,R,ugm-3 (Ref.eq)
15-01-2022,01:00,31.900,R,ugm-3 (FIDAS),26.415,R,ugm-3 (Ref.eq)
15-01-2022,02:00,29.900,R,ugm-3 (FIDAS),25.283,R,ugm-3 (Ref.eq)
15-01-2022,03:00,28.600,R,ugm-3 (FIDAS),25.944,R,ugm-3 (Ref.eq)
15-01-2022,04:00,20.900,R,ugm-3 (FIDAS),19.434,R,ugm-3 (Ref.eq)
15-01-2022,05:00,15.800,R,ugm-3 (FIDAS),14.717,R,ugm-3 (Ref.eq)
15-01-2022,06:00,15.200,R,ugm-3 (FIDAS),14.245,R,ugm-3 (Ref.eq)
15-01-2022,07:00,16.000,R,ugm-3 (FIDAS),15.000,R,ugm-3 (Ref.eq)
15-01-2022,08:00,18.100,R,ugm-3 (FIDAS),16.793,R,ugm-3 (Ref.eq)
15-01-2022,09:00,21.200,R,ugm-3 (FIDAS),19.434,R,ugm-3 (Ref.eq)
15-01-2022,10:00,23.000,R,ugm-3 (FIDAS),21.227,R,ugm-3 (Ref.eq)
15-01-2022,11:00,27.900,R,ugm-3 (FIDAS),24.623,R,ugm-3 (Ref.eq)
15-01-2022,12:00,28.000,R,ugm-3 (FIDAS),25.000,R,ugm-3 (Ref.eq)
15-01-2022,13:00,30.300,R,ugm-3 (FIDAS),26.604,R,ugm-3 (Ref.eq)
15-01-2022,14:00,27.900,R,ugm-3 (FIDAS),24.811,R,ugm-3 (Ref.eq)
15-01-2022,15:00,28.100,R,ugm-3 (FIDAS),24.811,R,ugm-3 (Ref.eq)
15-01-2022,16:00,30.500,R,ugm-3 (FIDAS),26.793,R,ugm-3 (Ref.eq)
15-01-2022,17:00,30.200,R,ugm-3 (FIDAS),26.510,R,ugm-3 (Ref.eq)
15-01-2022,18:00,30.200,R,ugm-3 (FIDAS),26.321,R,ugm-3 (Ref.eq)
15-01-2022,19:00,37.500,R,ugm-3 (FIDAS),33.679,R,ugm-3 (Ref.eq)
15-01-2022,20:00,32.200,R,ugm-3 (FIDAS),28.774,R,ugm-3 (Ref.eq)
15-01-2022,21:00,42.700,R,ugm-3 (FIDAS),37.830,R,ugm-3 (Ref.eq)
15-01-2022,22:00,37.700,R,ugm-3 (FIDAS),33.396,R,ugm-3 (Ref.eq)
15-01-2022,23:00,41.300,R,ugm-3 (FIDAS),37.076,R,ugm-3 (Ref.eq)
15-01-2022,24:00,39.200,R,ugm-3 (FIDAS),34.717,R,ugm-3 (Ref.eq)
16-01-2022,01:00,25.600,R,ugm-3 (FIDAS),22.264,R,ugm-3 (Ref.eq)
16-01-2022,02:00,19.400,R,ugm-3 (FIDAS),16.510,R,ugm-3 (Ref.eq)
16-01-2022,03:00,18.800,R,ugm-3 (FIDAS),15.755,R,ugm-3 (Ref.eq)
16-01-2022,04:00,19.900,R,ugm-3 (FIDAS),16.981,R,ugm-3 (Ref.eq)
16-01-2022,05:00,18.700,R,ugm-3 (FIDAS),16.226,R,ugm-3 (Ref.eq)
16-01-2022,06:00,17.000,R,ugm-3 (FIDAS),15.094,R,ugm-3 (Ref.eq)
16-01-2022,07:00,14.200,R,ugm-3 (FIDAS),12.642,R,ugm-3 (Ref.eq)
16-01-2022,08:00,14.800,R,ugm-3 (FIDAS),13.113,R,ugm-3 (Ref.eq)
16-01-2022,09:00,15.100,R,ugm-3 (FIDAS),12.925,R,ugm-3 (Ref.eq)
16-01-2022,10:00,14.800,R,ugm-3 (FIDAS),12.642,R,ugm-3 (Ref.eq)
16-01-2022,11:00,14.800,R,ugm-3 (FIDAS),12.830,R,ugm-3 (Ref.eq)
16-01-2022,12:00,14.100,R,ugm-3 (FIDAS),12.547,R,ugm-3 (Ref.eq)
16-01-2022,13:00,12.800,R,ugm-3 (FIDAS),11.226,R,ugm-3 (Ref.eq)
16-01-2022,14:00,15.000,R,ugm-3 (FIDAS),13.113,R,ugm-3 (Ref.eq)
16-01-2022,15:00,16.800,R,ugm-3 (FIDAS),13.679,R,ugm-3 (Ref.eq)